,,,PA_Meas_PMT16A,,PR_Meas_QMR101_102,,RH_Meas_QMH101,,SR_Meas_QMS101,,TA_Meas_QMH101,,GenWind,,GenWind,
date,time,status,PA,status,PR,status,RH,status,SR,status,TA,status,DirAvg,status,SpdAvg,
2009-12-20, 00:00:04,VALID,1006.1,VALID,0,VALID,84.467,VALID,0,VALID,26.2739,VALID,311,VALID,0.398438,
2009-12-20, 00:01:04,VALID,1006.06,VALID,0,VALID,84.3068,VALID,0,VALID,26.2933,VALID,12,VALID,0.671484,
2009-12-20, 00:02:04,VALID,1006.03,VALID,0,VALID,84.1694,VALID,0,VALID,26.2933,VALID,294,VALID,0.659375,
2009-12-20, 00:03:04,VALID,1006.01,VALID,0,VALID,84.116,VALID,0,VALID,26.3343,VALID,295,VALID,1.00234,
2009-12-20, 00:04:04,VALID,1005.99,VALID,0,VALID,84.116,VALID,0,VALID,26.3128,VALID,355,VALID,0.932813,
2009-12-20, 00:05:04,VALID,1005.99,VALID,0,VALID,84.0703,VALID,0,VALID,26.3128,VALID,260,VALID,0.383203,
2009-12-20, 00:06:04,VALID,1006.01,VALID,0,VALID,84.116,VALID,0,VALID,26.3323,VALID,274,VALID,0.144531,
2009-12-20, 00:07:04,VALID,1006.03,VALID,0,VALID,84.261,VALID,0,VALID,26.3518,VALID,335,VALID,0.123828,
2009-12-20, 00:08:04,VALID,1006.04,VALID,0,VALID,84.3678,VALID,0,VALID,26.3323,VALID,285,VALID,0.291406,
2009-12-20, 00:09:04,VALID,1006.04,VALID,0,VALID,84.261,VALID,0,VALID,26.3323,VALID,298,VALID,0.723047,
2009-12-20, 00:10:04,VALID,1006.01,VALID,0,VALID,84.2839,VALID,0,VALID,26.3343,VALID,311,VALID,0.85,
2009-12-20, 00:11:04,VALID,1006.01,VALID,0,VALID,84.322,VALID,0,VALID,26.3128,VALID,296,VALID,0.241406,
2009-12-20, 00:12:04,VALID,1006.01,VALID,0,VALID,84.2686,VALID,0,VALID,26.3538,VALID,309,VALID,0.380859,
2009-12-20, 00:13:04,VALID,1005.99,VALID,0,VALID,84.0931,VALID,0,VALID,26.3323,VALID,304,VALID,1.02656,
2009-12-20, 00:14:04,VALID,1005.98,VALID,0,VALID,84.1771,VALID,0,VALID,26.3498,VALID,283,VALID,0.573828,
2009-12-20, 00:15:04,VALID,1006,VALID,0,VALID,84.0474,VALID,0,VALID,26.3693,VALID,303,VALID,0.716406,
2009-12-20, 00:16:04,VALID,1005.99,VALID,0,VALID,84.0474,VALID,0,VALID,26.3498,VALID,17,VALID,0.822656,
2009-12-20, 00:17:04,VALID,1005.94,VALID,0,VALID,84.4136,VALID,0,VALID,26.3303,VALID,15,VALID,0.333984,
2009-12-20, 00:18:04,VALID,1005.92,VALID,0,VALID,84.3678,VALID,0,VALID,26.3303,VALID,14,VALID,0.512109,
2009-12-20, 00:19:04,VALID,1005.92,VALID,0,VALID,84.6043,VALID,0,VALID,26.3108,VALID,17,VALID,0.478516,
2009-12-20, 00:20:04,VALID,1005.91,VALID,0,VALID,84.7569,VALID,0,VALID,26.2309,VALID,9,VALID,0.359766,
2009-12-20, 00:21:04,VALID,1005.87,VALID,0,VALID,84.9247,VALID,0,VALID,26.2544,VALID,9,VALID,0.110547,
2009-12-20, 00:22:04,VALID,1005.85,VALID,0,VALID,84.8942,VALID,0,VALID,26.194,VALID,360,VALID,0.335156,
2009-12-20, 00:23:04,VALID,1005.81,VALID,0,VALID,85.0773,VALID,0,VALID,26.1745,VALID,360,VALID,0.494531,
2009-12-20, 00:24:04,VALID,1005.75,VALID,0,VALID,85.268,VALID,0,VALID,26.1745,VALID,1,VALID,0.589844,
2009-12-20, 00:25:04,VALID,1005.78,VALID,0,VALID,85.1383,VALID,0,VALID,26.155,VALID,356,VALID,0.925391,
2009-12-20, 00:26:04,VALID,1005.73,VALID,0,VALID,85.0773,VALID,0,VALID,26.157,VALID,360,VALID,0.866797,
2009-12-20, 00:27:04,VALID,1005.67,VALID,0,VALID,85.0925,VALID,0,VALID,26.155,VALID,352,VALID,0.796484,
2009-12-20, 00:28:04,VALID,1005.66,VALID,0,VALID,85.1917,VALID,0,VALID,26.1745,VALID,230,VALID,0.256641,
2009-12-20, 00:29:04,VALID,1005.65,VALID,0,VALID,85.1383,VALID,0,VALID,26.1959,VALID,235,VALID,0.235547,
2009-12-20, 00:30:04,VALID,1005.54,VALID,0,VALID,84.9552,VALID,0,VALID,26.1959,VALID,333,VALID,1.02305,
2009-12-20, 00:31:04,VALID,1005.58,VALID,0,VALID,84.6348,VALID,0,VALID,26.1959,VALID,345,VALID,0.882031,
2009-12-20, 00:32:04,VALID,1005.53,VALID,0,VALID,84.7035,VALID,0,VALID,26.194,VALID,23,VALID,0.489844,
2009-12-20, 00:33:04,VALID,1005.49,VALID,0,VALID,84.6653,VALID,0,VALID,26.1745,VALID,3,VALID,0.893359,
2009-12-20, 00:34:04,VALID,1005.45,VALID,0,VALID,84.7111,VALID,0,VALID,26.1959,VALID,352,VALID,0.545703,
2009-12-20, 00:35:04,VALID,1005.47,VALID,0,VALID,84.6577,VALID,0,VALID,26.1745,VALID,344,VALID,0.660547,
2009-12-20, 00:36:04,VALID,1005.4,VALID,0,VALID,84.7035,VALID,0,VALID,26.155,VALID,354,VALID,0.805078,
2009-12-20, 00:37:04,VALID,1005.39,VALID,0,VALID,84.6577,VALID,0,VALID,26.1355,VALID,356,VALID,0.913672,
2009-12-20, 00:38:04,VALID,1005.37,VALID,0,VALID,84.7263,VALID,0,VALID,26.1355,VALID,356,VALID,1.41562,
2009-12-20, 00:39:04,VALID,1005.35,VALID,0,VALID,84.6577,VALID,0,VALID,26.1355,VALID,354,VALID,1.04805,
2009-12-20, 00:40:04,VALID,1005.29,VALID,0,VALID,84.795,VALID,0,VALID,26.116,VALID,354,VALID,1.36797,
2009-12-20, 00:41:04,VALID,1005.27,VALID,0,VALID,84.7416,VALID,0,VALID,26.118,VALID,360,VALID,1.14414,
2009-12-20, 00:42:04,VALID,1005.22,VALID,0,VALID,84.8332,VALID,0.100563,VALID,26.0556,VALID,4,VALID,1.24063,
2009-12-20, 00:43:04,VALID,1005.21,VALID,0,VALID,84.9323,VALID,0.100563,VALID,26.0966,VALID,350,VALID,0.822266,
2009-12-20, 00:44:04,VALID,1005.17,VALID,0,VALID,84.9705,VALID,0,VALID,26.0791,VALID,355,VALID,1.25469,
2009-12-20, 00:45:04,VALID,1005.16,VALID,0,VALID,84.8408,VALID,0,VALID,26.1005,VALID,351,VALID,0.821094,
2009-12-20, 00:46:04,VALID,1005.15,VALID,0,VALID,85.0391,VALID,0,VALID,26.0985,VALID,330,VALID,0.265234,
2009-12-20, 00:47:04,VALID,1005.14,VALID,0,VALID,84.9323,VALID,0,VALID,26.12,VALID,342,VALID,0.410547,
2009-12-20, 00:48:04,VALID,1005.13,VALID,0,VALID,84.5585,VALID,0,VALID,26.0791,VALID,352,VALID,1.75312,
2009-12-20, 00:49:04,VALID,1005.11,VALID,0,VALID,84.4212,VALID,0,VALID,26.118,VALID,358,VALID,1.66641,
2009-12-20, 00:50:04,VALID,1005.12,VALID,0,VALID,84.467,VALID,0,VALID,26.118,VALID,343,VALID,0.669922,
2009-12-20, 00:51:04,VALID,1005.13,VALID,0,VALID,84.3678,VALID,0,VALID,26.159,VALID,346,VALID,1.32578,
2009-12-20, 00:52:04,VALID,1005.12,VALID,0,VALID,84.3449,VALID,0,VALID,26.159,VALID,360,VALID,0.933594,
2009-12-20, 00:53:04,VALID,1005.18,VALID,0,VALID,84.2686,VALID,0,VALID,26.1395,VALID,350,VALID,1.76133,
2009-12-20, 00:54:04,VALID,1005.2,VALID,0,VALID,84.2762,VALID,0,VALID,26.1395,VALID,347,VALID,0.84375,
2009-12-20, 00:55:04,VALID,1005.23,VALID,0,VALID,84.2762,VALID,0,VALID,26.1395,VALID,349,VALID,1.30898,
2009-12-20, 00:56:04,VALID,1005.25,VALID,0,VALID,84.5051,VALID,0,VALID,26.118,VALID,347,VALID,0.30625,
2009-12-20, 00:57:04,VALID,1005.25,VALID,0,VALID,84.5814,VALID,0,VALID,26.0985,VALID,356,VALID,0.666016,
2009-12-20, 00:58:04,VALID,1005.26,VALID,0,VALID,84.5661,VALID,0,VALID,26.0791,VALID,285,VALID,1.85273,
2009-12-20, 00:59:04,VALID,1005.22,VALID,0,VALID,84.5204,VALID,0,VALID,26.0771,VALID,287,VALID,0.747266,
2009-12-20, 01:00:04,VALID,1005.23,VALID,0,VALID,84.5509,VALID,0,VALID,26.0771,VALID,356,VALID,1.03359,
2009-12-20, 01:01:04,VALID,1005.22,VALID,0,VALID,84.5967,VALID,0,VALID,26.0791,VALID,306,VALID,0.633594,
2009-12-20, 01:02:04,VALID,1005.2,VALID,0,VALID,84.734,VALID,0,VALID,26.0596,VALID,331,VALID,0.867578,
2009-12-20, 01:03:04,VALID,1005.16,VALID,0,VALID,84.7416,VALID,0,VALID,26.0596,VALID,3,VALID,0.528516,
2009-12-20, 01:04:04,VALID,1005.14,VALID,0,VALID,84.6653,VALID,0,VALID,26.0596,VALID,353,VALID,1.74102,
2009-12-20, 01:05:04,VALID,1005.1,VALID,0,VALID,84.8332,VALID,0,VALID,26.0187,VALID,312,VALID,1.03711,
2009-12-20, 01:06:04,VALID,1005.05,VALID,0,VALID,84.9552,VALID,0,VALID,26.0206,VALID,270,VALID,0.626562,
2009-12-20, 01:07:04,VALID,1005.07,VALID,0,VALID,84.9705,VALID,0,VALID,26.0012,VALID,344,VALID,0.682422,
2009-12-20, 01:08:04,VALID,1005.01,VALID,0,VALID,85.0925,VALID,0,VALID,26.0206,VALID,9,VALID,0.611328,
2009-12-20, 01:09:04,VALID,1004.98,VALID,0,VALID,85.0239,VALID,0,VALID,26.0012,VALID,355,VALID,0.789063,
2009-12-20, 01:10:04,VALID,1004.91,VALID,0,VALID,85.2375,VALID,0,VALID,25.9602,VALID,343,VALID,0.462109,
2009-12-20, 01:11:04,VALID,1004.89,VALID,0,VALID,85.0696,VALID,0,VALID,25.9622,VALID,351,VALID,1.16641,
2009-12-20, 01:12:04,VALID,1004.79,VALID,0,VALID,85.0849,VALID,0,VALID,25.9408,VALID,345,VALID,0.733203,
2009-12-20, 01:13:04,VALID,1004.77,VALID,0,VALID,85.1307,VALID,0,VALID,25.9427,VALID,343,VALID,1.275,
2009-12-20, 01:14:04,VALID,1004.77,VALID,0,VALID,85.2222,VALID,0,VALID,25.9213,VALID,358,VALID,0.252734,
2009-12-20, 01:15:04,VALID,1004.77,VALID,0,VALID,85.2527,VALID,0,VALID,25.9213,VALID,285,VALID,0.612109,
2009-12-20, 01:16:04,VALID,1004.76,VALID,0,VALID,85.3214,VALID,0,VALID,25.9427,VALID,350,VALID,0.765625,
2009-12-20, 01:17:04,VALID,1004.73,VALID,0,VALID,85.329,VALID,0,VALID,25.9232,VALID,294,VALID,0.785156,
2009-12-20, 01:18:04,VALID,1004.76,VALID,0,VALID,85.268,VALID,0,VALID,25.9213,VALID,336,VALID,0.600391,
2009-12-20, 01:19:04,VALID,1004.75,VALID,0,VALID,85.1383,VALID,0,VALID,25.9213,VALID,284,VALID,0.777734,
2009-12-20, 01:20:04,VALID,1004.75,VALID,0,VALID,85.2375,VALID,0,VALID,25.9408,VALID,341,VALID,0.174609,
2009-12-20, 01:21:04,VALID,1004.75,VALID,0,VALID,85.1307,VALID,0,VALID,25.9408,VALID,261,VALID,0.475,
2009-12-20, 01:22:04,VALID,1004.77,VALID,0,VALID,85.207,VALID,0,VALID,25.9408,VALID,284,VALID,0.190234,
2009-12-20, 01:23:04,VALID,1004.81,VALID,0,VALID,85.1536,VALID,0,VALID,25.9408,VALID,325,VALID,1.06172,
2009-12-20, 01:24:04,VALID,1004.78,VALID,0,VALID,85.001,VALID,0,VALID,25.9427,VALID,289,VALID,1.65313,
2009-12-20, 01:25:04,VALID,1004.8,VALID,0,VALID,85.0239,VALID,0,VALID,25.9213,VALID,299,VALID,1.02813,
2009-12-20, 01:26:04,VALID,1004.78,VALID,0,VALID,85.0849,VALID,0,VALID,25.9427,VALID,303,VALID,0.436328,
2009-12-20, 01:27:04,VALID,1004.75,VALID,0,VALID,85.2451,VALID,0,VALID,25.9427,VALID,357,VALID,0.442578,
2009-12-20, 01:28:04,VALID,1004.72,VALID,0,VALID,85.329,VALID,0,VALID,25.9018,VALID,284,VALID,0.305078,
2009-12-20, 01:29:04,VALID,1004.71,VALID,0,VALID,85.2299,VALID,0,VALID,25.9018,VALID,358,VALID,0.444922,
2009-12-20, 01:30:04,VALID,1004.68,VALID,0,VALID,85.1078,VALID,0,VALID,25.9038,VALID,288,VALID,0.188281,
2009-12-20, 01:31:04,VALID,1004.7,VALID,0,VALID,85.0315,VALID,0,VALID,25.9038,VALID,353,VALID,0.760156,
2009-12-20, 01:32:04,VALID,1004.72,VALID,0,VALID,85.062,VALID,0,VALID,25.9038,VALID,312,VALID,0.80625,
2009-12-20, 01:33:04,VALID,1004.77,VALID,0,VALID,85.1459,VALID,0,VALID,25.8823,VALID,333,VALID,0.311328,
2009-12-20, 01:34:04,VALID,1004.82,VALID,0,VALID,85.1459,VALID,0,VALID,25.8843,VALID,270,VALID,0.641406,
2009-12-20, 01:35:04,VALID,1004.87,VALID,0,VALID,85.001,VALID,0,VALID,25.9038,VALID,285,VALID,1.43086,
2009-12-20, 01:36:04,VALID,1004.96,VALID,0,VALID,85.0468,VALID,0,VALID,25.9038,VALID,320,VALID,0.619531,
2009-12-20, 01:37:04,VALID,1005.08,VALID,0,VALID,84.9934,VALID,0,VALID,25.8823,VALID,239,VALID,0.278516,
2009-12-20, 01:38:04,VALID,1005.11,VALID,0,VALID,85.2756,VALID,0,VALID,25.8823,VALID,279,VALID,0.528516,
2009-12-20, 01:39:04,VALID,1005.17,VALID,0,VALID,85.0315,VALID,0,VALID,25.8629,VALID,242,VALID,0.742188,
2009-12-20, 01:40:04,VALID,1005.18,VALID,0,VALID,85.0162,VALID,0,VALID,25.8434,VALID,222,VALID,1.04922,
2009-12-20, 01:41:04,VALID,1005.22,VALID,0,VALID,85.1078,VALID,0,VALID,25.8434,VALID,230,VALID,0.500391,
2009-12-20, 01:42:04,VALID,1005.23,VALID,0,VALID,85.1841,VALID,0,VALID,25.8843,VALID,228,VALID,0.106641,
2009-12-20, 01:43:04,VALID,1005.25,VALID,0,VALID,85.2299,VALID,0,VALID,25.8629,VALID,228,VALID,0.0488281,
2009-12-20, 01:44:04,VALID,1005.27,VALID,0,VALID,85.1688,VALID,0,VALID,25.8629,VALID,227,VALID,0.467578,
2009-12-20, 01:45:04,VALID,1005.3,VALID,0,VALID,84.8789,VALID,0,VALID,25.8843,VALID,271,VALID,0.692187,
2009-12-20, 01:46:04,VALID,1005.25,VALID,0,VALID,84.6729,VALID,0,VALID,25.9038,VALID,274,VALID,0.372656,
2009-12-20, 01:47:04,VALID,1005.32,VALID,0,VALID,84.7492,VALID,0,VALID,25.9447,VALID,30,VALID,0.354297,
2009-12-20, 01:48:04,VALID,1005.32,VALID,0,VALID,84.5585,VALID,0,VALID,25.9427,VALID,30,VALID,0.221094,
2009-12-20, 01:49:04,VALID,1005.32,VALID,0,VALID,84.6577,VALID,0,VALID,25.9622,VALID,30,VALID,0.351563,
2009-12-20, 01:50:04,VALID,1005.33,VALID,0,VALID,84.9857,VALID,0,VALID,25.9622,VALID,27,VALID,0.720703,
2009-12-20, 01:51:04,VALID,1005.34,VALID,0,VALID,85.1307,VALID,0,VALID,25.9232,VALID,17,VALID,0.517578,
2009-12-20, 01:52:04,VALID,1005.33,VALID,0,VALID,84.9323,VALID,0,VALID,25.8629,VALID,7,VALID,0.432031,
2009-12-20, 01:53:04,VALID,1005.33,VALID,0,VALID,85.1841,VALID,0,VALID,25.8843,VALID,7,VALID,0.0660156,
2009-12-20, 01:54:04,VALID,1005.32,VALID,0,VALID,85.3672,VALID,0,VALID,25.8648,VALID,7,VALID,0.147656,
2009-12-20, 01:55:04,VALID,1005.33,VALID,0,VALID,85.596,VALID,0,VALID,25.8648,VALID,7,VALID,0.397266,
2009-12-20, 01:56:04,VALID,1005.37,VALID,0,VALID,85.7944,VALID,0,VALID,25.8259,VALID,118,VALID,0.701172,
2009-12-20, 01:57:04,VALID,1005.38,VALID,0,VALID,85.8707,VALID,0,VALID,25.8259,VALID,89,VALID,0.447656,
2009-12-20, 01:58:04,VALID,1005.38,VALID,0,VALID,85.8173,VALID,0,VALID,25.785,VALID,89,VALID,0.379687,
2009-12-20, 01:59:04,VALID,1005.39,VALID,0,VALID,86.0156,VALID,0,VALID,25.8064,VALID,89,VALID,0.207031,
2009-12-20, 02:00:04,VALID,1005.29,VALID,0,VALID,85.8173,VALID,0,VALID,25.7655,VALID,125,VALID,1.0707,
2009-12-20, 02:01:04,VALID,1005.29,VALID,0,VALID,86.2598,VALID,0,VALID,25.7674,VALID,138,VALID,0.290625,
2009-12-20, 02:02:04,VALID,1005.29,VALID,0,VALID,86.0995,VALID,0,VALID,25.7674,VALID,138,VALID,0,
2009-12-20, 02:03:04,VALID,1005.32,VALID,0,VALID,86.0995,VALID,0,VALID,25.7265,VALID,156,VALID,0.335547,
2009-12-20, 02:04:04,VALID,1005.35,VALID,0,VALID,86.2674,VALID,0,VALID,25.7674,VALID,156,VALID,0.0859375,
2009-12-20, 02:05:04,VALID,1005.37,VALID,0,VALID,86.3208,VALID,0,VALID,25.748,VALID,156,VALID,0.3125,
2009-12-20, 02:06:04,VALID,1005.48,VALID,0,VALID,85.8707,VALID,0,VALID,25.785,VALID,134,VALID,0.821094,
2009-12-20, 02:07:04,VALID,1005.59,VALID,0,VALID,85.4816,VALID,0,VALID,25.8239,VALID,180,VALID,1.77891,
2009-12-20, 02:08:04,VALID,1005.65,VALID,0,VALID,85.4435,VALID,0.100563,VALID,25.8648,VALID,171,VALID,2.35313,
2009-12-20, 02:09:04,VALID,1005.73,VALID,0,VALID,85.3519,VALID,0,VALID,25.8843,VALID,156,VALID,1.54062,
2009-12-20, 02:10:04,VALID,1005.79,VALID,0,VALID,85.0925,VALID,0,VALID,25.9213,VALID,143,VALID,1.93672,
2009-12-20, 02:11:04,VALID,1005.83,VALID,0,VALID,80.4237,VALID,0,VALID,25.7655,VALID,177,VALID,3.33242,
2009-12-20, 02:12:04,VALID,1005.88,VALID,0,VALID,81.3544,VALID,0,VALID,25.4325,VALID,174,VALID,1.79062,
2009-12-20, 02:13:04,VALID,1005.85,VALID,0,VALID,79.409,VALID,0,VALID,25.1053,VALID,167,VALID,3.20234,
2009-12-20, 02:14:04,VALID,1005.88,VALID,0,VALID,79.0581,VALID,0,VALID,24.7159,VALID,163,VALID,3.07383,
2009-12-20, 02:15:04,VALID,1005.91,VALID,0,VALID,80.0422,VALID,0,VALID,24.4025,VALID,179,VALID,3.30273,
2009-12-20, 02:16:04,VALID,1005.91,VALID,0,VALID,81.5909,VALID,0,VALID,24.2486,VALID,186,VALID,1.33711,
2009-12-20, 02:17:04,VALID,1005.9,VALID,0,VALID,82.636,VALID,0,VALID,24.1318,VALID,191,VALID,2.30117,
2009-12-20, 02:18:04,VALID,1005.87,VALID,0,VALID,83.3455,VALID,0,VALID,23.9955,VALID,167,VALID,1.37266,
2009-12-20, 02:19:04,VALID,1005.89,VALID,0,VALID,84.1923,VALID,0,VALID,23.9177,VALID,195,VALID,2.2543,
2009-12-20, 02:20:04,VALID,1005.78,VALID,0,VALID,84.8179,VALID,0,VALID,23.8203,VALID,167,VALID,0.930078,
2009-12-20, 02:21:04,VALID,1005.81,VALID,0,VALID,85.1612,VALID,0,VALID,23.7619,VALID,200,VALID,1.92773,
2009-12-20, 02:22:04,VALID,1005.78,VALID,0,VALID,85.8249,VALID,0,VALID,23.7212,VALID,181,VALID,2.1457,
2009-12-20, 02:23:04,VALID,1005.74,VALID,0,VALID,86.0843,VALID,0,VALID,23.7035,VALID,203,VALID,1.96094,
2009-12-20, 02:24:04,VALID,1005.78,VALID,0,VALID,86.3894,VALID,0,VALID,23.6841,VALID,208,VALID,2.62578,
2009-12-20, 02:25:04,VALID,1005.73,VALID,0,VALID,86.7938,VALID,0,VALID,23.6823,VALID,185,VALID,2.21914,
2009-12-20, 02:26:04,VALID,1005.64,VALID,0,VALID,87.3354,VALID,0,VALID,23.7425,VALID,177,VALID,3.53047,
2009-12-20, 02:27:04,VALID,1005.63,VALID,0,VALID,87.2134,VALID,0,VALID,23.7814,VALID,207,VALID,2.43359,
2009-12-20, 02:28:04,VALID,1005.62,VALID,0,VALID,87.1142,VALID,0.100563,VALID,23.7796,VALID,202,VALID,1.89453,
2009-12-20, 02:29:04,VALID,1005.63,VALID,0,VALID,87.3125,VALID,0,VALID,23.7991,VALID,163,VALID,1.12852,
2009-12-20, 02:30:04,VALID,1005.58,VALID,0,VALID,87.5719,VALID,0.100563,VALID,23.8185,VALID,223,VALID,2.05898,
2009-12-20, 02:31:04,VALID,1005.6,VALID,0,VALID,87.5261,VALID,0,VALID,23.7991,VALID,202,VALID,2.96484,
2009-12-20, 02:32:04,VALID,1005.61,VALID,0,VALID,87.2286,VALID,0,VALID,23.7991,VALID,215,VALID,3.84922,
2009-12-20, 02:33:04,VALID,1005.7,VALID,0,VALID,87.2286,VALID,0,VALID,23.7796,VALID,204,VALID,4.47617,
2009-12-20, 02:34:04,VALID,1005.77,VALID,0,VALID,88.0831,VALID,0,VALID,23.8185,VALID,185,VALID,3.42852,
2009-12-20, 02:35:04,VALID,1005.65,VALID,0,VALID,87.6177,VALID,0.100563,VALID,23.7991,VALID,194,VALID,3.60391,
2009-12-20, 02:36:04,VALID,1005.71,VALID,0,VALID,87.4575,VALID,0,VALID,23.7991,VALID,183,VALID,1.79883,
2009-12-20, 02:37:04,VALID,1005.62,VALID,0,VALID,87.2286,VALID,0,VALID,23.8167,VALID,164,VALID,1.93711,
2009-12-20, 02:38:04,VALID,1005.58,VALID,0,VALID,87.3507,VALID,0,VALID,23.8575,VALID,163,VALID,0.901563,
2009-12-20, 02:39:04,VALID,1005.57,VALID,0,VALID,88.2814,VALID,0,VALID,23.8964,VALID,197,VALID,3.69062,
2009-12-20, 02:40:04,VALID,1005.54,VALID,0,VALID,88.7925,VALID,0,VALID,23.9761,VALID,171,VALID,2.45586,
2009-12-20, 02:41:04,VALID,1005.53,VALID,0,VALID,89.2045,VALID,0.100563,VALID,23.9548,VALID,189,VALID,3.25898,
2009-12-20, 02:42:04,VALID,1005.49,VALID,0,VALID,89.2884,VALID,0,VALID,23.9353,VALID,190,VALID,2.71367,
2009-12-20, 02:43:04,VALID,1005.47,VALID,0,VALID,89.5402,VALID,0,VALID,23.9159,VALID,204,VALID,1.79062,
2009-12-20, 02:44:04,VALID,1005.51,VALID,0,VALID,89.3647,VALID,0.100563,VALID,23.8946,VALID,203,VALID,2.47148,
2009-12-20, 02:45:04,VALID,1005.55,VALID,0,VALID,87.9457,VALID,0,VALID,23.8982,VALID,200,VALID,3.39531,
2009-12-20, 02:46:04,VALID,1005.52,VALID,0,VALID,88.0144,VALID,0.100563,VALID,23.8769,VALID,163,VALID,3.00859,
2009-12-20, 02:47:04,VALID,1005.49,VALID,0,VALID,87.7626,VALID,0,VALID,23.8398,VALID,193,VALID,2.99102,
2009-12-20, 02:48:04,VALID,1005.39,VALID,0,VALID,88.434,VALID,0.100563,VALID,23.7796,VALID,271,VALID,2.22617,
2009-12-20, 02:49:04,VALID,1005.34,VALID,0,VALID,88.9375,VALID,0,VALID,23.7601,VALID,82,VALID,1.08516,
2009-12-20, 02:50:04,VALID,1005.29,VALID,0,VALID,89.2503,VALID,0.100563,VALID,23.7407,VALID,119,VALID,1.41602,
2009-12-20, 02:51:04,VALID,1005.28,VALID,0,VALID,89.8377,VALID,0,VALID,23.7389,VALID,140,VALID,1.57187,
2009-12-20, 02:52:04,VALID,1005.26,VALID,0,VALID,89.914,VALID,0.201126,VALID,23.7991,VALID,163,VALID,0.669141,
2009-12-20, 02:53:04,VALID,1005.31,VALID,0,VALID,90.0513,VALID,0.100563,VALID,23.8185,VALID,110,VALID,0.525391,
2009-12-20, 02:54:04,VALID,1005.29,VALID,0,VALID,90.4404,VALID,0.100563,VALID,23.838,VALID,107,VALID,0.414844,
2009-12-20, 02:55:04,VALID,1005.24,VALID,0,VALID,90.3488,VALID,0,VALID,23.8185,VALID,70,VALID,0.463672,
2009-12-20, 02:56:04,VALID,1005.25,VALID,0,VALID,90.1505,VALID,0.100563,VALID,23.914,VALID,25,VALID,1.03555,
2009-12-20, 02:57:04,VALID,1005.27,VALID,0,VALID,90.2115,VALID,0.100563,VALID,24.0114,VALID,40,VALID,0.350781,
2009-12-20, 02:58:04,VALID,1005.24,VALID,0,VALID,90.4175,VALID,0.100563,VALID,24.0697,VALID,25,VALID,0.966016,
2009-12-20, 02:59:04,VALID,1005.23,VALID,0,VALID,89.8072,VALID,0.100563,VALID,24.0716,VALID,10,VALID,1.22969,
2009-12-20, 03:00:04,VALID,1005.28,VALID,0,VALID,89.0748,VALID,0.100563,VALID,24.091,VALID,26,VALID,1.03164,
2009-12-20, 03:01:04,VALID,1005.2,VALID,0,VALID,89.2808,VALID,0.100563,VALID,24.0326,VALID,36,VALID,1.59805,
2009-12-20, 03:02:04,VALID,1005.13,VALID,0,VALID,89.8148,VALID,0.100563,VALID,23.9761,VALID,49,VALID,0.816797,
2009-12-20, 03:03:04,VALID,1005.12,VALID,0,VALID,90.3183,VALID,0,VALID,23.9159,VALID,53,VALID,0.414063,
2009-12-20, 03:04:04,VALID,1005.11,VALID,0,VALID,90.509,VALID,0,VALID,23.8769,VALID,4,VALID,0.404687,
2009-12-20, 03:05:04,VALID,1005.08,VALID,0,VALID,90.7989,VALID,0,VALID,23.838,VALID,353,VALID,0,
2009-12-20, 03:06:04,VALID,1005.03,VALID,0,VALID,91.2796,VALID,0,VALID,23.8769,VALID,7,VALID,1.15586,
2009-12-20, 03:07:04,VALID,1005.02,VALID,0,VALID,91.5923,VALID,0,VALID,23.8964,VALID,12,VALID,1.78242,
2009-12-20, 03:08:04,VALID,1004.98,VALID,0,VALID,91.5695,VALID,0.100563,VALID,23.9159,VALID,354,VALID,0.708203,
2009-12-20, 03:09:04,VALID,1004.92,VALID,0,VALID,91.4855,VALID,0,VALID,23.9353,VALID,1,VALID,0.848047,
2009-12-20, 03:10:04,VALID,1004.93,VALID,0,VALID,91.7144,VALID,0.100563,VALID,23.9335,VALID,304,VALID,0.858984,
2009-12-20, 03:11:04,VALID,1004.87,VALID,0,VALID,91.8594,VALID,0.100563,VALID,23.9937,VALID,296,VALID,0.208984,
2009-12-20, 03:12:04,VALID,1004.81,VALID,0,VALID,91.9128,VALID,0,VALID,24.0132,VALID,306,VALID,1.08789,
2009-12-20, 03:13:04,VALID,1004.72,VALID,0,VALID,91.6305,VALID,0,VALID,24.0132,VALID,292,VALID,1.10156,
2009-12-20, 03:14:04,VALID,1004.66,VALID,0,VALID,91.6229,VALID,0,VALID,24.0734,VALID,335,VALID,0.808594,
2009-12-20, 03:15:04,VALID,1004.6,VALID,0,VALID,91.6076,VALID,0,VALID,24.0716,VALID,330,VALID,0.554688,
2009-12-20, 03:16:04,VALID,1004.66,VALID,0,VALID,91.3787,VALID,0,VALID,24.091,VALID,348,VALID,1.01367,
2009-12-20, 03:17:04,VALID,1004.68,VALID,0,VALID,91.1117,VALID,0,VALID,24.1494,VALID,294,VALID,1.83672,
2009-12-20, 03:18:04,VALID,1004.77,VALID,0,VALID,90.7379,VALID,0,VALID,24.2078,VALID,305,VALID,1.03359,
2009-12-20, 03:19:04,VALID,1004.84,VALID,0,VALID,90.181,VALID,0,VALID,24.2857,VALID,285,VALID,1.45234,
2009-12-20, 03:20:04,VALID,1004.86,VALID,0,VALID,90.0284,VALID,0,VALID,24.3459,VALID,277,VALID,1.02305,
2009-12-20, 03:21:04,VALID,1004.86,VALID,0,VALID,90.3031,VALID,0,VALID,24.3636,VALID,223,VALID,0.450391,
2009-12-20, 03:22:04,VALID,1004.88,VALID,0,VALID,90.2344,VALID,0,VALID,24.3636,VALID,310,VALID,1.59102,
2009-12-20, 03:23:04,VALID,1004.93,VALID,0,VALID,90.2802,VALID,0,VALID,24.3459,VALID,290,VALID,1.33945,
2009-12-20, 03:24:04,VALID,1004.91,VALID,0,VALID,90.5167,VALID,0,VALID,24.3033,VALID,299,VALID,1.64727,
2009-12-20, 03:25:04,VALID,1004.95,VALID,0,VALID,90.8905,VALID,0,VALID,24.3265,VALID,347,VALID,1.00352,
2009-12-20, 03:26:04,VALID,1004.99,VALID,0,VALID,91.1728,VALID,0,VALID,24.3052,VALID,255,VALID,0.539453,
2009-12-20, 03:27:04,VALID,1005.08,VALID,0.5,VALID,91.2796,VALID,0.100563,VALID,24.2857,VALID,306,VALID,0.50625,
2009-12-20, 03:28:04,VALID,1005.09,VALID,0,VALID,91.5466,VALID,0,VALID,24.2449,VALID,295,VALID,1.04766,
2009-12-20, 03:29:04,VALID,1005.07,VALID,0,VALID,91.5161,VALID,0,VALID,24.2486,VALID,298,VALID,1.04805,
2009-12-20, 03:30:04,VALID,1005.08,VALID,0,VALID,91.6686,VALID,0,VALID,24.2486,VALID,355,VALID,0.705859,
2009-12-20, 03:31:04,VALID,1005.09,VALID,0,VALID,91.6839,VALID,0,VALID,24.2291,VALID,313,VALID,1.60547,
2009-12-20, 03:32:04,VALID,1005.09,VALID,0,VALID,91.5313,VALID,0,VALID,24.2486,VALID,249,VALID,0.898047,
2009-12-20, 03:33:04,VALID,1005.12,VALID,0,VALID,91.6229,VALID,0,VALID,24.2875,VALID,227,VALID,0.589453,
2009-12-20, 03:34:04,VALID,1005.14,VALID,0,VALID,91.5237,VALID,0,VALID,24.2875,VALID,350,VALID,0.411719,
2009-12-20, 03:35:04,VALID,1005.17,VALID,0,VALID,91.4626,VALID,0,VALID,24.2273,VALID,356,VALID,0.150781,
2009-12-20, 03:36:04,VALID,1005.18,VALID,0,VALID,91.5695,VALID,0,VALID,24.2291,VALID,356,VALID,0.372656,
2009-12-20, 03:37:04,VALID,1005.23,VALID,0,VALID,91.6686,VALID,0,VALID,24.1902,VALID,347,VALID,0.5625,
2009-12-20, 03:38:04,VALID,1005.32,VALID,0,VALID,91.8975,VALID,0,VALID,24.2291,VALID,275,VALID,1.34609,
2009-12-20, 03:39:04,VALID,1005.36,VALID,0,VALID,91.8059,VALID,0,VALID,24.2468,VALID,297,VALID,1.30039,
2009-12-20, 03:40:04,VALID,1005.41,VALID,0,VALID,91.0278,VALID,0,VALID,24.2468,VALID,272,VALID,1.6918,
2009-12-20, 03:41:04,VALID,1005.46,VALID,0,VALID,89.6699,VALID,0,VALID,24.2486,VALID,292,VALID,2.46289,
2009-12-20, 03:42:04,VALID,1005.52,VALID,0,VALID,89.029,VALID,0,VALID,24.2078,VALID,282,VALID,1.27305,
2009-12-20, 03:43:04,VALID,1005.49,VALID,0,VALID,88.0449,VALID,0,VALID,24.1689,VALID,301,VALID,2.69414,
2009-12-20, 03:44:04,VALID,1005.48,VALID,0,VALID,87.4499,VALID,0,VALID,24.0929,VALID,292,VALID,1.72148,